Zurück zum Katalog

FENGYUN 1C DEB

AktivPO
NORAD 29998·DEBRIS·🇨🇳 China

Gestartet May 10, 1999 von Taiyuan Satellite Launch Center

Loading…

Nächste Überflüge (nächste 24 Stunden)

TLE

AktuellSource: Space-Track

Epoche: Sep 14, 2026, 04:34 UTC

1 29998U 99025LY  26257.19092576  .00001147  00000-0  46755-3 0  9996
2 29998  99.2862 340.6366 0004556 232.1135 127.9633 14.29578643 18098

Verfolge FENGYUN 1C DEB in Echtzeit mit AllMySat

Download on the App Store